Location: Ammerl�gen
(47.2167°N, 9.6000°E)
Time: 13:04:13
(UTC+00:00)

Cosmos 676 Rocket - Pass Details

Date: 07 August 2021
Orbit: 755 x 783 km, 74.0° (Epoch: 26 September)

Event Time Altitude Azimuth Distance (km) Brightness Sun altitude
Exits shadow 01:46:07 21° 267° (W) 1,705 5.4 -19.2°
Maximum altitude 01:48:22 28° 305° (NW) 1,441 5.4 -19.0°
Drops below altitude 10° 01:52:56 10° 4° (N) 2,345 7.3 -18.5°
Sets 01:55:40 0° 16° (NNE) 3,274 8.5 -18.2°
